Weather History for Madera, CA

Change the Weather History Date:

Thursday, December 6, 2012

  Actual Average Record
Temperature  
Mean Temperature 57 °F 46 °F  
Max Temperature 58 °F 56 °F 73 °F (2014)
Min Temperature 55 °F 37 °F 24 °F (2013)
Degree Days  
Heating Degree Days 8    
Month to date heating degree days 45  
Since 1 July heating degree days 413  
Cooling Degree Days 0    
Month to date cooling degree days 0  
Year to date cooling degree days 1737  
Growing Degree Days 5 (Base 50)    
Moisture  
Dew Point 53 °F    
Average Humidity 90    
Maximum Humidity 100    
Minimum Humidity 80    
Precipitation  
Precipitation T in 0.04 in 0.24 in (2007)
Month to date precipitation 0.70 0.20  
Year to date precipitation 9.10 10.52  
Since 1 July precipitation 2.88 2.52  
Snow  
Snow 0.00 in - - ()
Month to date snowfall 0.0  
Since 1 July snowfall 0.0  
Snow Depth 0.00 in    
Sea Level Pressure  
Sea Level Pressure 30.08 in    
Wind  
Wind Speed 9 mph (NW)    
Max Wind Speed 15 mph    
Max Gust Speed 18 mph    
Visibility 6 miles    
Events Rain    
T = Trace of Precipitation, MM = Missing Value Source: NWS Daily Summary

Daily Weather History Graph

Daily Weather History Graph

Search for Another Location

Airport:

Trip Planner

Search our weather history database for the weather conditions in past years. The results will help you decide how hot, cold, wet, or windy it might be!

Date:

Astronomy

Dec. 06, 2012 Rise Set
Actual Time 7:00 AM PST 4:43 PM PST
Civil Twilight 6:31 AM PST 5:12 PM PST
Nautical Twilight 5:58 AM PST 5:44 PM PST
Astronomical Twilight 5:27 AM PST 6:16 PM PST
Moon No Moon Rise 12:03 PM PST (12/6)
Length of Visible Light 10h 41m
Length of Day
9h 43m
Waning Gibbous, 48% of the Moon is Illuminated
Dec 6
Waning Gibbous
Dec 13
New
Dec 19
First Quarter
Dec 28
Full
Jan 4
Last Quarter

Hourly Weather History & Observations

Time (PST) Temp. Dew Point Humidity Pressure Visibility Wind Dir Wind Speed Gust Speed Precip Events Conditions
12:53 AM 57.0 °F 55.0 °F 93% 30.09 in 1.5 mi NW 5.8 mph - 0.00 in   Overcast
1:14 AM 57.2 °F 55.4 °F 94% 30.09 in 2.0 mi NW 6.9 mph - N/A   Overcast
1:29 AM 57.2 °F 55.4 °F 94% 30.09 in 3.0 mi NW 5.8 mph - N/A   Overcast
1:36 AM 57.2 °F 55.4 °F 94% 30.09 in 2.5 mi WNW 3.5 mph - N/A   Overcast
1:53 AM 55.9 °F 55.0 °F 97% 30.09 in 1.8 mi WNW 6.9 mph - N/A   Overcast
2:13 AM 55.4 °F 55.4 °F 100% 30.09 in 2.5 mi WNW 6.9 mph - N/A   Overcast
2:22 AM 55.4 °F 55.4 °F 100% 30.09 in 4.0 mi NW 9.2 mph - N/A   Overcast
2:53 AM 55.9 °F 54.0 °F 93% 30.09 in 3.0 mi WNW 8.1 mph - N/A   Overcast
2:59 AM 55.4 °F 53.6 °F 94% 30.09 in 1.8 mi NW 8.1 mph - N/A   Overcast
3:24 AM 55.4 °F 55.4 °F 100% 30.08 in 2.5 mi WNW 8.1 mph - N/A   Overcast
3:31 AM 55.4 °F 53.6 °F 94% 30.07 in 4.0 mi WNW 5.8 mph - N/A   Overcast
3:53 AM 55.9 °F 54.0 °F 93% 30.07 in 4.0 mi NW 9.2 mph - N/A   Overcast
4:53 AM 55.0 °F 54.0 °F 96% 30.07 in 3.0 mi NNW 12.7 mph - N/A   Overcast
5:08 AM 55.4 °F 53.6 °F 94% 30.08 in 1.8 mi NNW 9.2 mph - N/A   Overcast
5:21 AM 55.4 °F 53.6 °F 94% 30.08 in 3.0 mi NW 9.2 mph - N/A   Overcast
5:30 AM 55.4 °F 53.6 °F 94% 30.08 in 2.0 mi NW 6.9 mph - N/A   Overcast
5:41 AM 55.4 °F 53.6 °F 94% 30.09 in 3.0 mi NW 10.4 mph - N/A   Overcast
5:53 AM 55.9 °F 54.0 °F 93% 30.09 in 5.0 mi NW 9.2 mph - N/A   Overcast
6:53 AM 55.0 °F 54.0 °F 96% 30.09 in 6.0 mi NW 8.1 mph - N/A   Overcast
7:53 AM 55.9 °F 54.0 °F 93% 30.10 in 10.0 mi NW 8.1 mph - N/A   Overcast
8:53 AM 55.9 °F 54.0 °F 93% 30.10 in 5.0 mi WNW 8.1 mph - N/A   Overcast
9:11 AM 57.2 °F 53.6 °F 88% 30.11 in 6.0 mi WNW 9.2 mph - N/A   Overcast
9:53 AM 57.9 °F 54.0 °F 87% 30.12 in 10.0 mi NW 8.1 mph - N/A   Overcast
10:53 AM 57.9 °F 53.1 °F 84% 30.11 in 10.0 mi NW 5.8 mph - N/A   Overcast
11:04 AM 57.2 °F 53.6 °F 88% 30.10 in 10.0 mi NW 8.1 mph - N/A   Overcast
11:26 AM 57.2 °F 53.6 °F 88% 30.09 in 10.0 mi NW 5.8 mph - N/A   Overcast
11:53 AM 57.9 °F 52.0 °F 81% 30.09 in 10.0 mi NW 9.2 mph - N/A   Overcast
12:53 PM 57.9 °F 52.0 °F 81% 30.06 in 10.0 mi NNW 11.5 mph - N/A   Overcast
1:53 PM 57.0 °F 51.1 °F 81% 30.05 in 10.0 mi NNW 10.4 mph - N/A   Overcast
2:46 PM 57.2 °F 51.8 °F 82% 30.05 in 10.0 mi NW 11.5 mph - N/A   Overcast
2:53 PM 57.0 °F 51.1 °F 81% 30.05 in 10.0 mi NW 11.5 mph - N/A   Overcast
3:53 PM 55.9 °F 51.1 °F 84% 30.05 in 10.0 mi NW 9.2 mph - N/A   Overcast
4:53 PM 55.0 °F 52.0 °F 89% 30.06 in 7.0 mi WNW 6.9 mph - N/A   Overcast
5:09 PM 55.4 °F 51.8 °F 88% 30.06 in 5.0 mi NW 5.8 mph - N/A   Overcast
5:35 PM 55.4 °F 53.6 °F 94% 30.06 in 7.0 mi WNW 5.8 mph - N/A   Overcast
5:53 PM 55.0 °F 53.1 °F 93% 30.06 in 9.0 mi WNW 6.9 mph - N/A   Overcast
6:39 PM 55.4 °F 51.8 °F 88% 30.08 in 4.0 mi WNW 6.9 mph - N/A   Overcast
6:53 PM 55.0 °F 53.1 °F 93% 30.08 in 4.0 mi WNW 6.9 mph - 0.01 in   Overcast
7:02 PM 53.6 °F 51.8 °F 94% 30.08 in 4.0 mi WNW 8.1 mph - 0.00 in Rain Light Rain
7:19 PM 53.6 °F 51.8 °F 94% 30.09 in 4.0 mi WNW 6.9 mph - 0.00 in   Overcast
7:24 PM 53.6 °F 51.8 °F 94% 30.09 in 4.0 mi WNW 6.9 mph - 0.00 in   Overcast
7:36 PM 53.6 °F 51.8 °F 94% 30.10 in 4.0 mi WNW 6.9 mph - 0.00 in   Overcast
7:53 PM 54.0 °F 52.0 °F 93% 30.10 in 5.0 mi NW 8.1 mph - 0.00 in   Overcast
8:53 PM 55.0 °F 52.0 °F 89% 30.10 in 10.0 mi NW 3.5 mph - N/A   Overcast
9:53 PM 55.0 °F 51.1 °F 86% 30.10 in 10.0 mi WNW 5.8 mph - N/A   Overcast
10:53 PM 55.0 °F 50.0 °F 83% 30.10 in 10.0 mi West 5.8 mph - N/A   Overcast
11:53 PM 55.0 °F 48.9 °F 80% 30.11 in 10.0 mi WNW 6.9 mph - N/A   Overcast